Regional Weather Roundup
Issued by NWS

Home | Current Version | Previous Version | Graphics & Text | Print | Product List | Glossary On
Versions: 1 2 3 4 5 6 7 8 9 10 11 12 13 14 15 16 17 18 19 20 21 22 23 24 25 26 27 28 29 30 31 32 33 34 35 36 37 38 39 40 41 42 43 44 45 46 47 48 49 50
000
ASUS43 KMPX 230510
RWRMN
WEATHER ROUNDUP FOR MINNESOTA
NATIONAL WEATHER SERVICE TWIN CITIES/CHANHASSEN MN
1200 AM CDT TUE SEP 23 2014


NOTE: "FAIR" INDICATES FEW OR NO CLOUDS BELOW 12,000 FEET WITH NO
SIGNIFICANT WEATHER AND/OR OBSTRUCTIONS TO VISIBILITY. N/A MEANS
CURRENT SKY AND/OR WEATHER CONDITIONS ARE NOT AVAILABLE.

MNZ060>063-068>070-230600-
   Twin Cities Metro

CITY           SKY/WX    TMP DP  RH WIND       PRES   REMARKS
TWIN CITIES    CLEAR     58  50  75 SE5       30.18S
ST PAUL        CLEAR     55  53  93 E3        30.19S
CRYSTAL        CLEAR     54  49  83 S3        30.16S
BLAINE         CLEAR     55  52  88 CALM      30.17S
LAKEVILLE      CLEAR     48  48 100 CALM      30.18S
EDEN PRAIRIE   CLEAR     57  50  77 S7        30.16F
SOUTH ST PAUL  CLEAR     54  50  88 CALM      30.18S
LAKE ELMO      FAIR      48  46  93 CALM      30.19S
$$
MNZ001>005-007-008-013>017-022>024-027-028-230600-
   Northwest Minnesota

CITY           SKY/WX    TMP DP  RH WIND       PRES   REMARKS
BEMIDJI        CLEAR     50  47  89 CALM      30.12S
HALLOCK        CLEAR     55  48  76 SE9       30.03S
ROSEAU         CLEAR     55  48  76 S6        30.07R
WARROAD        CLEAR     55  50  82 S3        30.08S
THIEF RVR FALL CLEAR     54  48  82 SE8       30.07F
CROOKSTON      CLEAR     54  48  82 SE8       30.06S
FOSSTON        CLEAR     55  52  88 SE7       30.10S
DETROIT LAKES  CLEAR     55  50  82 S7        30.11F
MOORHEAD       CLEAR     57  52  82 S9        30.07F
PARK RAPIDS    CLEAR     55  48  77 SE5       30.12S
MAHNOMEN       FAIR      55  48  76 S6        30.09S
$$
MNZ006-009>011-018-025>026-230600-
   North Central Minnesota

CITY           SKY/WX    TMP DP  RH WIND       PRES   REMARKS
BAUDETTE       CLEAR     52  48  86 CALM      30.09R
FLAG ISLAND    CLEAR     57  54  88 CALM      30.06S
INTL FALLS     CLEAR     44  42  93 CALM      30.10S
WASKISH        CLEAR     52  48  87 CALM      30.11S
BIG FORK       CLEAR     45  45 100 CALM      30.14R
LONGVILLE      CLEAR     45  45 100 CALM      30.13S
GRAND RAPIDS   CLEAR     48  45  87 S6        30.15R
CRANE LAKE     CLEAR     43  43 100 CALM      30.13S
ORR            CLEAR     52  46  82 CALM      30.11S
COOK           CLEAR     48  46  93 CALM      30.14R
WALKER         FAIR      50  47  92 CALM      30.12F
$$
MNZ012-019>021-037-230600-
   Northeast Minnesota

CITY           SKY/WX    TMP DP  RH WIND       PRES   REMARKS
DULUTH         CLEAR     56  48  74 W7        30.15S
ELY            CLEAR     52  48  87 S5        30.13S
HIBBING        FOG       44  42  93 CALM      30.15S VSB 3/4
EVELETH        CLEAR     45  45 100 CALM      30.15S
DULUTH HARBOR  CLEAR     57  54  88 SW9       30.15S
TWO HARBORS    CLEAR     55  48  76 W5        30.13R
SILVER BAY     CLEAR     46  46 100 CALM      30.12S
GRAND MARAIS     N/A     58  50  75 SW6       30.07S
G MARAIS ARPRT CLEAR     54  46  76 W6        30.13S
$$
MNZ029>031-032-039>041-046>048-054>057-064-230600-
   West Central Minnesota

CITY           SKY/WX    TMP DP  RH WIND       PRES   REMARKS
FERGUS FALLS   CLEAR     57  46  67 SE8       30.11S
WHEATON        CLEAR     48  46  93 E8        30.11S
MORRIS         CLEAR     52  48  87 SE7       30.11S
ALEXANDRIA     CLEAR     53  48  83 SE7       30.15S
ELBOW LAKE     FAIR      55  48  80 SE8       30.11S
WADENA         CLEAR     52  46  82 SE3       30.12S
GLENWOOD       CLEAR     50  46  87 SE5       30.15S
APPLETON       CLEAR     55  48  76 S6        30.11F
BENSON         CLEAR     52  46  82 S6        30.13S
ORTONVILLE     CLEAR     55  46  71 S5        30.10F
MADISON        CLEAR     54  48  82 SE5       30.11F
WILLMAR        FAIR      54  46  76 CALM      30.16S
$$
MNZ033>034-036-042>043-049>051-058-059-230600-
   Central Minnesota

CITY           SKY/WX    TMP DP  RH WIND       PRES   REMARKS
ST CLOUD       CLEAR     52  49  89 SE5       30.16S
SAUK CENTRE    FAIR      51  48  88 CALM      30.15R
PAYNESVILLE    CLEAR     52  48  85 SE5       30.16S
AITKIN         CLEAR     48  43  81 CALM      30.14S
PINE RIVER     CLEAR     46  46 100 CALM      30.17S
BRAINERD       CLEAR     49  48  97 CALM      30.15S
STAPLES        CLEAR     48  46  93 CALM      30.13S
LONG PRAIRIE   FAIR      50  48  93 CALM      30.15S
LITTLE FALLS   CLEAR     50  46  87 CALM      30.15S
LITCHFIELD     CLEAR     57  52  82 CALM      30.17R
BUFFALO        CLEAR     53  47  82 CALM      30.17S
MAPLE LAKE     CLEAR     54  51  89 CALM      30.17S
$$
MNZ037-044-045-052-053-230600-
   East Central Minnesota

CITY           SKY/WX    TMP DP  RH WIND       PRES   REMARKS
PRINCETON      CLEAR     50  48  93 CALM      30.16F
MORA           CLEAR     45  45 100 CALM      30.18S FOG
CAMBRIDGE      CLEAR     55  46  71 CALM      30.15S
RUSH CITY      MOCLDY    48  47  95 CALM      30.18S
MOOSE LAKE     CLEAR     45  45 100 CALM      30.15S FOG
HINCKLEY       FAIR      45  45 100 CALM      30.17S
CLOQUET        CLEAR     55  48  76 SW3       30.16S
$$
MNZ071>073-080-081-089-090-097-098-230600-
   Southwest Minnesota

CITY           SKY/WX    TMP DP  RH WIND       PRES   REMARKS
MONTEVIDEO     CLEAR     55  48  76 SW5       30.14S
GRANITE FALLS  CLEAR     52  48  86 SE6       30.15S
CANBY          CLEAR     60  49  67 S9        30.12F
MARSHALL       CLEAR     54  46  76 S7        30.12F
REDWOOD FALLS  CLEAR     53  48  83 S6        30.15S
OLIVIA         CLEAR     54  48  82 S3        30.15S
PIPESTONE      PTCLDY    54  46  76 S5        30.15F
WINDOM         CLEAR     55  48  76 S5        30.17S
WORTHINGTON    PTCLDY    54  48  82 S6        30.18S
JACKSON        CLEAR     54  46  76 S6        30.19S
TRACY          CLEAR     58  49  72 S9        30.14F
SLAYTON        PTCLDY    54  48  81 CALM      30.16F
$$
MNZ065>067-074>077-082>085-091>093-230600-
   South Central Minnesota

CITY           SKY/WX    TMP DP  RH WIND       PRES   REMARKS
MANKATO        CLEAR     55  45  67 S7        30.18S
NEW ULM        CLEAR     52  48  87 S6        30.17S
ST JAMES       CLEAR     54  48  82 S5        30.19R
FAIRMONT       CLEAR     50  43  76 S5        30.19R
GLENCOE        CLEAR     56  48  72 CALM      30.17R
FARIBAULT      CLEAR     50  45  81 CALM      30.19F
OWATONNA       CLEAR     55  48  76 SE6       30.20S
WASECA         CLEAR     50  45  81 S3        30.21S
ALBERT LEA     CLEAR     54  52  94 CALM      30.21S
$$
MNZ078>079-086>088-094>096-230600-
   Southeast Minnesota

CITY           SKY/WX    TMP DP  RH WIND       PRES   REMARKS
ROCHESTER      CLEAR     49  46  90 S6        30.22S
RED WING       CLEAR     48  48 100 CALM      30.19R
STANTON        CLEAR     53  47  83 S3        30.18S
DODGE CENTER   CLEAR     50  46  87 S5        30.21S
WINONA         CLEAR     52  50  93 CALM      30.22S
AUSTIN         CLEAR     48  46  93 CALM      30.21S
PRESTON        CLEAR     52  50  94 S5        30.23R
$$
ABBREVIATIONS USED IN REMARKS
   TC - TEMPERATURES IN CELSIUS
  WCI - WIND CHILL INDEX
   HX - HEAT INDEX
  VSB - VISIBILITY
$$


USA.gov is the U.S. government's official web portal to all federal, state and local government web resources and services.